This is the latest recevied weather packets stored in our database for station/object KG4LKY-5. If no packets are shown the sender has not sent any weather packets the latest 10 day(s).
| Time | Temp. | Humidity | Pressure | Rain* | Wind** | Luminosity | Snow |
|---|---|---|---|---|---|---|---|
| 1777999056 | 21.67° C | 45% | 1014.3 hPa | 0 mm | - | - | - |
| 1777998455 | 21.11° C | 44% | 1014.3 hPa | 0 mm | - | - | - |
| 1777998155 | 21.11° C | 43% | 1014.3 hPa | 0 mm | - | - | - |
| 1777997856 | 21.67° C | 45% | 1014.4 hPa | 0 mm | - | - | - |
| 1777997554 | 21.67° C | 44% | 1014.4 hPa | 0 mm | - | - | - |
| 1777996954 | 21.11° C | 42% | 1014.4 hPa | 0 mm | - | - | - |
| 1777996653 | 21.11° C | 41% | 1014.3 hPa | 0 mm | - | - | - |
| 1777996353 | 21.67° C | 42% | 1014.2 hPa | 0 mm | - | - | - |
| 1777996053 | 21.67° C | 41% | 1014.3 hPa | 0 mm | - | - | - |
| 1777995753 | 20.56° C | 42% | 1014.2 hPa | 0 mm | - | - | - |
| 1777995452 | 21.11° C | 42% | 1014.1 hPa | 0 mm | - | - | - |
| 1777995152 | 21.11° C | 40% | 1014.1 hPa | 0 mm | - | - | - |
| 1777994852 | 21.11° C | 42% | 1014.1 hPa | 0 mm | - | - | - |
| 1777994551 | 20.56° C | 41% | 1014.2 hPa | 0 mm | - | - | - |
| 1777994251 | 20.56° C | 43% | 1014.2 hPa | 0 mm | - | - | - |
| 1777993951 | 21.11° C | 44% | 1014.2 hPa | 0 mm | - | - | - |
| 1777993651 | 21.11° C | 40% | 1014.2 hPa | 0 mm | - | - | - |
| 1777992748 | 20° C | 45% | 1014.2 hPa | 0 mm | - | - | - |
| 1777992447 | 20.56° C | 43% | 1014.2 hPa | 0 mm | - | - | - |
| 1777992147 | 20.56° C | 44% | 1014.2 hPa | 0 mm | - | - | - |
| 1777991546 | 20° C | 44% | 1014.3 hPa | 0 mm | - | - | - |
| 1777991246 | 20° C | 46% | 1014.2 hPa | 0 mm | - | - | - |
| 1777990945 | 19.44° C | 50% | 1014.2 hPa | 0 mm | - | - | - |
| 1777990645 | 19.44° C | 47% | 1014.2 hPa | 0 mm | - | - | - |
| 1777990345 | 18.89° C | 48% | 1014.3 hPa | 0 mm | - | - | - |
* Rain since midnight (hover to see other rain measurements)
** Current wind speed in m/s (hover to see current wind gust speed)